Regional Weather Roundup
Issued by NWS

Home | Current Version | Previous Version | Text Only | Print | Product List | Glossary Off
Versions: 1 2 3 4 5 6 7 8 9 10 11 12 13 14 15 16 17 18 19 20 21 22 23 24 25 26 27 28 29 30 31 32 33 34 35 36 37 38 39 40 41 42 43 44 45 46 47 48 49 50

000
ASUS43 KDTX 281501
RWRMI
MICHIGAN HOURLY REGIONAL WEATHER ROUNDUP
NATIONAL WEATHER SERVICE DETROIT/PONTIAC MI
1100 AM EDT FRI AUG 28 2015

NOTE: "FAIR" INDICATES FEW OR NO CLOUDS BELOW 12,000 FEET WITH NO
SIGNIFICANT WEATHER AND/OR OBSTRUCTION TO VISIBILITY.

MIZ047>049-052>055-059>063-066>070-074>076-081>083-281600-
SOUTHEAST LOWER MICHIGAN

CITY           SKY/WX    TMP DP  RH WIND       PRES   REMARKS
ADRIAN         SUNNY     68  58  70 S6        30.22S
ALMA           CLOUDY    63  61  92 S5        30.20S
ANN ARBOR      CLOUDY    65  58  78 SE5       30.21S
BAD AXE        SUNNY     66  57  73 S5        30.21R
CARO           SUNNY     66  58  74 S6        30.20S
DETROIT CITY   MOSUNNY   68  59  73 S3        30.22R
DETROIT        CLOUDY    66  58  75 CALM      30.22S
FLINT          SUNNY     68  57  68 S9        30.21S
GROSSE ILE     PTSUNNY   66  61  82 S3        30.21R
HILLSDALE      MOSUNNY   68  61  79 S6        30.21S
HOWELL         CLOUDY    66  57  72 S7        30.21S

CITY           SKY/WX    TMP DP  RH WIND       PRES   REMARKS
JACKSON        MOSUNNY   67  59  75 S8        30.21R
LAMBERTVILLE   SUNNY     71  58  63 S3        30.21S
LANSING        MOSUNNY   67  58  72 SW8       30.21R
LAPEER         FAIR      64  57  76 SW7       30.22S
MASON          PTSUNNY   65  60  83 SE5       30.21R
MONROE         MOSUNNY   69  58  67 CALM      30.20F
MT. CLEMENS    PTSUNNY   65  59  80 CALM      30.20S
PONTIAC        MOSUNNY   65  57  75 S8        30.21S
PORT HOPE        N/A     68  57  68 VRB5      30.18S
PORT HURON     CLOUDY    66  57  72 CALM      30.22S
TRI CITIES     SUNNY     66  56  70 S6        30.21S
MIDLAND        FAIR      67  56  66 SW6       30.19S
TROY           MOSUNNY   67  59  74 CALM      30.23S
SAGINAW HB     SUNNY     66  57  72 SW6       30.19S
$$
MIZ043>046-050>051-056>058-064>065-071>073-077>080-281600-
SOUTHWEST LOWER MICHIGAN

CITY           SKY/WX    TMP DP  RH WIND       PRES   REMARKS
BATTLE CREEK   MOSUNNY   68  59  73 S7        30.20R
BENTON HARBOR  SUNNY     68  60  75 VRB3      30.17S
BIG RAPIDS     SUNNY     64  61  91 SE5       30.18S
COLDWATER      MOSUNNY   68  60  76 S3        30.20S
FREMONT        FAIR      64  60  86 CALM      30.17S
HOLLAND        SUNNY     69  60  73 S7        30.18S
GRAND RAPIDS   PTSUNNY   67  59  75 S7        30.18S
IONIA          PTSUNNY   66  59  76 S3        30.19S
KALAMAZOO      SUNNY     68  58  70 VRB5      30.19S
LUDINGTON      PTSUNNY   71  64  79 S7        30.15S
MARSHALL       MOSUNNY   68  59  72 SE5       30.20R
MOUNT PLEASANT MOSUNNY   70  58  64 S5        30.19S
MUSKEGON       MOSUNNY   68  59  73 S6        30.17S
SOUTH HAVEN    SUNNY     68  60  74 S6        30.17S
$$
MIZ016>042-281600-
NORTHERN LOWER MICHIGAN

CITY           SKY/WX    TMP DP  RH WIND       PRES   REMARKS
ALPENA         SUNNY     69  57  65 SW8       30.16S
BEAVER ISLAND  MOSUNNY   68  58  70 SW17G24   30.12S
BELLAIRE       SUNNY     67  58  73 S7        30.15S
CADILLAC       SUNNY     65  57  75 SW10      30.17S
CHARLEVOIX     MOSUNNY   67  59  77 SW10      30.17R
FRANKFORT      MOSUNNY   68  62  80 SW8       30.14S
GAYLORD        MOSUNNY   65  58  78 SW12      30.16F
GRAYLING       MOSUNNY   67  56  69 S7        30.18R
HARBOR SPRINGS PTSUNNY   65  59  80 SW5       30.14S
HOUGHTON LAKE  SUNNY     65  56  72 SW7       30.19S
MANISTEE       MOSUNNY   64  57  77 S7        30.16S
OSCODA         SUNNY     69  59  69 SW8       30.17S
PELLSTON       PTSUNNY   69  58  67 SW10G21   30.14S
ROGERS CITY    SUNNY     70  58  66 SW7       30.15S
TRAVERSE CITY  MOSUNNY   70  59  68 VRB6      30.13F
$$
MIZ007>008-015-281600-
EASTERN UPPER MICHIGAN

CITY           SKY/WX    TMP DP  RH WIND       PRES   REMARKS
KINROSS        CLOUDY    66  63  88 SW6       30.12S
MACKINAC ISLAN CLOUDY    67  60  78 SW8G20    30.12S
NEWBERRY       MOSUNNY   67  61  80 SW13G18   30.09S
S. S. MARIE    CLOUDY    68  61  78 SW6       30.10R
MUNISING         N/A     72  59  63 SW10G17   30.04F
$$
MIZ004>006-011>014-085-281600-
CENTRAL UPPER MICHIGAN

CITY           SKY/WX    TMP DP  RH WIND       PRES   REMARKS
MANISTIQUE     CLOUDY    66  61  82 S10       30.09S
ESCANABA       MOSUNNY   66  61  82 S9        30.07
MENOMINEE      MOSUNNY   66  57  72 SW9       30.09S
SAWYER-GWINN   MOSUNNY   68  57  68 SW10      30.06F
$$
MIZ001>003-009>011-084-281600-
WESTERN UPPER MICHIGAN

CITY           SKY/WX    TMP DP  RH WIND       PRES   REMARKS
IRON MOUNTAIN  PTSUNNY   68  59  73 SW7       30.06S
HOUGHTON       SUNNY     68  60  75 S5        29.99F
COPPER HARBOR    N/A     69  59  70 VRB7      29.97F
IRONWOOD       PTSUNNY   66  63  88 S10       29.98S
$$

ABBREVIATIONS USED IN REMARKS
   TC - TEMPERATURE IN CELSIUS
  WCI - WIND CHILL INDEX
   HX - HEAT INDEX
  VSB - VISIBILITY



USA.gov is the U.S. government's official web portal to all federal, state and local government web resources and services.